status,avgMeasuredTime,avgSpeed,extID,medianMeasuredTime,TIMESTAMP,vehicleCount,_id,REPORT_ID
OK,44,36,1031,44,2014-08-01T08:00:00,13,20747086,181060
OK,37,43,1031,37,2014-08-01T08:10:00,14,20747908,181060
OK,39,41,1031,39,2014-08-01T08:15:00,11,20748357,181060
OK,39,41,1031,39,2014-08-01T08:20:00,12,20748806,181060
OK,38,42,1031,38,2014-08-01T08:25:00,14,20749255,181060
OK,38,42,1031,38,2014-08-01T08:30:00,13,20749704,181060
OK,42,38,1031,42,2014-08-01T08:40:00,6,20750602,181060
OK,36,44,1031,36,2014-08-01T08:50:00,18,20751500,181060
OK,39,41,1031,39,2014-08-01T09:00:00,7,20752398,181060
OK,41,39,1031,41,2014-08-01T09:05:00,9,20752847,181060
OK,42,38,1031,42,2014-08-01T09:10:00,11,20753296,181060
OK,36,44,1031,36,2014-08-01T09:20:00,6,20754194,181060
OK,37,43,1031,37,2014-08-01T09:25:00,8,20754643,181060
OK,35,45,1031,35,2014-08-01T09:30:00,11,20755092,181060
OK,34,47,1031,34,2014-08-01T09:35:00,9,20755541,181060
OK,34,47,1031,34,2014-08-01T09:40:00,4,20755990,181060
OK,30,53,1031,30,2014-08-01T09:45:00,6,20756439,181060
OK,33,48,1031,33,2014-08-01T09:50:00,8,20756888,181060
OK,31,51,1031,31,2014-08-01T09:55:00,11,20757337,181060
OK,34,47,1031,34,2014-08-01T10:00:00,15,20757786,181060
OK,41,39,1031,41,2014-08-01T10:15:00,14,20759133,181060
OK,40,40,1031,40,2014-08-01T10:20:00,12,20759582,181060
OK,39,41,1031,39,2014-08-01T10:25:00,17,20760031,181060
OK,38,42,1031,38,2014-08-01T10:30:00,12,20760480,181060
OK,33,48,1031,33,2014-08-01T10:40:00,14,20761378,181060
OK,36,44,1031,36,2014-08-01T10:50:00,13,20762276,181060
OK,47,34,1031,47,2014-08-01T11:00:00,14,20763174,181060
OK,41,39,1031,41,2014-08-01T11:20:00,5,20764969,181060
OK,49,32,1031,49,2014-08-01T11:25:00,13,20765418,181060
OK,43,37,1031,43,2014-08-01T11:30:00,18,20765867,181060
OK,35,45,1031,35,2014-08-01T11:35:00,14,20766316,181060
OK,39,41,1031,39,2014-08-01T11:40:00,14,20766765,181060
OK,40,40,1031,40,2014-08-01T11:45:00,17,20767214,181060
OK,36,44,1031,36,2014-08-01T11:50:00,12,20767663,181060
OK,36,44,1031,36,2014-08-01T11:55:00,9,20768112,181060
OK,40,40,1031,40,2014-08-01T12:00:00,6,20768561,181060
OK,42,38,1031,42,2014-08-01T12:10:00,10,20769459,181060
OK,37,43,1031,37,2014-08-01T12:20:00,18,20770357,181060
OK,39,41,1031,39,2014-08-01T12:25:00,12,20770806,181060
OK,54,29,1031,54,2014-08-01T12:30:00,11,20771255,181060
OK,43,37,1031,43,2014-08-01T12:35:00,12,20771704,181060
OK,38,42,1031,38,2014-08-01T12:40:00,12,20772153,181060
OK,56,28,1031,56,2014-08-01T12:45:00,11,20772602,181060
OK,45,35,1031,45,2014-08-01T12:50:00,6,20773051,181060
OK,56,28,1031,56,2014-08-01T12:55:00,6,20773500,181060
OK,61,26,1031,61,2014-08-01T13:00:00,9,20773949,181060
OK,40,40,1031,40,2014-08-01T13:05:00,9,20774398,181060
OK,33,48,1031,33,2014-08-01T13:10:00,12,20774847,181060
OK,37,43,1031,37,2014-08-01T13:15:00,16,20775296,181060
OK,35,45,1031,35,2014-08-01T13:20:00,20,20775745,181060
OK,36,44,1031,36,2014-08-01T13:25:00,21,20776194,181060
OK,37,43,1031,37,2014-08-01T13:30:00,11,20776643,181060
OK,57,28,1031,57,2014-08-01T13:35:00,9,20777092,181060
OK,63,25,1031,63,2014-08-01T13:40:00,11,20777541,181060
OK,33,48,1031,33,2014-08-01T13:45:00,9,20777990,181060
OK,31,51,1031,31,2014-08-01T13:50:00,9,20778439,181060
OK,34,47,1031,34,2014-08-01T14:00:00,10,20779337,181060
OK,36,44,1031,36,2014-08-01T14:05:00,11,20779786,181060
OK,37,43,1031,37,2014-08-01T14:10:00,8,20780235,181060
OK,41,39,1031,41,2014-08-01T14:15:00,7,20780684,181060
OK,30,53,1031,30,2014-08-01T14:20:00,10,20781133,181060
OK,30,53,1031,30,2014-08-01T14:25:00,10,20781582,181060
OK,30,53,1031,30,2014-08-01T14:30:00,9,20782031,181060
OK,27,59,1031,27,2014-08-01T14:35:00,6,20782480,181060
OK,64,25,1031,64,2014-08-01T14:40:00,7,20782929,181060
OK,79,20,1031,79,2014-08-01T14:45:00,8,20783378,181060
OK,52,30,1031,52,2014-08-01T14:50:00,6,20783827,181060
OK,34,47,1031,34,2014-08-01T15:00:00,11,20784725,181060
OK,29,55,1031,29,2014-08-01T15:05:00,7,20785174,181060
OK,28,57,1031,28,2014-08-01T15:10:00,6,20785623,181060
OK,31,51,1031,31,2014-08-01T15:15:00,4,20786072,181060
OK,38,42,1031,38,2014-08-01T15:20:00,1,20786521,181060
OK,38,42,1031,38,2014-08-01T15:25:00,3,20786970,181060
OK,32,50,1031,32,2014-08-01T15:30:00,6,20787419,181060
OK,31,51,1031,31,2014-08-01T15:35:00,6,20787868,181060
OK,32,50,1031,32,2014-08-01T15:40:00,7,20788317,181060
OK,31,51,1031,31,2014-08-01T15:45:00,8,20788766,181060
OK,40,40,1031,40,2014-08-01T15:50:00,8,20789215,181060
OK,39,41,1031,39,2014-08-01T15:55:00,14,20789664,181060
OK,36,44,1031,36,2014-08-01T16:00:00,10,20790113,181060
OK,52,30,1031,52,2014-08-01T16:05:00,4,20790562,181060
OK,40,40,1031,40,2014-08-01T16:10:00,4,20791011,181060
OK,34,47,1031,34,2014-08-01T16:15:00,6,20791460,181060
OK,31,51,1031,31,2014-08-01T16:20:00,7,20791909,181060
OK,33,48,1031,33,2014-08-01T16:25:00,8,20792358,181060
OK,38,42,1031,38,2014-08-01T16:30:00,7,20792807,181060
OK,41,39,1031,41,2014-08-01T16:35:00,8,20793256,181060
OK,36,44,1031,36,2014-08-01T16:40:00,6,20793705,181060
OK,33,48,1031,33,2014-08-01T16:45:00,3,20794154,181060
OK,33,48,1031,33,2014-08-01T16:50:00,5,20794603,181060
OK,49,32,1031,49,2014-08-01T16:55:00,5,20795052,181060
OK,52,30,1031,52,2014-08-01T17:00:00,10,20795501,181060
OK,56,28,1031,56,2014-08-01T17:05:00,7,20795950,181060
OK,60,26,1031,60,2014-08-01T17:10:00,0,20796399,181060
OK,48,33,1031,48,2014-08-01T17:15:00,2,20796848,181060
OK,36,44,1031,36,2014-08-01T17:20:00,2,20797297,181060
OK,35,45,1031,35,2014-08-01T17:25:00,5,20797746,181060
OK,34,47,1031,34,2014-08-01T17:30:00,9,20798195,181060
OK,35,45,1031,35,2014-08-01T17:35:00,9,20798644,181060
OK,35,45,1031,35,2014-08-01T17:40:00,8,20799093,181060
OK,37,43,1031,37,2014-08-01T17:45:00,6,20799542,181060
OK,32,50,1031,32,2014-08-01T17:50:00,8,20799991,181060
OK,33,48,1031,33,2014-08-01T17:55:00,5,20800440,181060
OK,30,53,1031,30,2014-08-01T18:00:00,3,20800889,181060
OK,30,53,1031,30,2014-08-01T18:05:00,3,20801338,181060
OK,66,24,1031,66,2014-08-01T18:10:00,1,20801787,181060
OK,66,24,1031,66,2014-08-01T18:15:00,1,20802236,181060
OK,66,24,1031,66,2014-08-01T18:20:00,0,20802685,181060
OK,66,24,1031,66,2014-08-01T18:25:00,0,20803134,181060
OK,55,29,1031,55,2014-08-01T18:30:00,2,20803583,181060
OK,49,32,1031,49,2014-08-01T18:35:00,5,20804032,181060
OK,45,35,1031,45,2014-08-01T18:40:00,4,20804481,181060
OK,43,37,1031,43,2014-08-01T18:45:00,4,20804930,181060
OK,34,47,1031,34,2014-08-01T18:50:00,3,20805379,181060
OK,34,47,1031,34,2014-08-01T18:55:00,0,20805828,181060
OK,65,24,1031,65,2014-08-01T19:00:00,1,20806277,181060
OK,51,31,1031,51,2014-08-01T19:05:00,2,20806726,181060
OK,35,45,1031,35,2014-08-01T19:10:00,2,20807175,181060
OK,48,33,1031,48,2014-08-01T19:15:00,6,20807624,181060
OK,55,29,1031,55,2014-08-01T19:20:00,5,20808073,181060
OK,30,53,1031,30,2014-08-01T19:25:00,1,20808522,181060
OK,30,53,1031,30,2014-08-01T19:30:00,2,20808971,181060
OK,34,47,1031,34,2014-08-01T19:35:00,2,20809420,181060
OK,32,50,1031,32,2014-08-01T19:40:00,2,20809869,181060
OK,39,41,1031,39,2014-08-01T19:45:00,4,20810318,181060
OK,44,36,1031,44,2014-08-01T19:50:00,3,20810767,181060
OK,35,45,1031,35,2014-08-01T19:55:00,3,20811216,181060
OK,34,47,1031,34,2014-08-01T22:00:00,0,20816945,181060
OK,34,47,1031,34,2014-08-02T00:00:00,0,20823384,181060
OK,34,47,1031,34,2014-08-02T00:05:00,0,20823833,181060
OK,34,47,1031,34,2014-08-02T00:10:00,0,20824282,181060
OK,32,50,1031,32,2014-08-02T00:15:00,1,20824731,181060
OK,29,55,1031,29,2014-08-02T00:20:00,2,20825180,181060
OK,27,59,1031,27,2014-08-02T00:25:00,1,20825629,181060
OK,27,59,1031,27,2014-08-02T00:30:00,0,20826078,181060
OK,27,59,1031,27,2014-08-02T00:35:00,0,20826527,181060
OK,36,44,1031,36,2014-08-02T00:40:00,1,20826976,181060
OK,36,44,1031,36,2014-08-02T00:45:00,1,20827425,181060
OK,36,44,1031,36,2014-08-02T00:50:00,0,20827874,181060
OK,36,44,1031,36,2014-08-02T00:55:00,0,20828323,181060
OK,36,44,1031,36,2014-08-02T01:00:00,0,20828772,181060
OK,36,44,1031,36,2014-08-02T01:05:00,0,20829221,181060
OK,36,44,1031,36,2014-08-02T01:10:00,0,20829670,181060
OK,25,64,1031,25,2014-08-02T01:15:00,1,20830119,181060
OK,25,64,1031,25,2014-08-02T01:20:00,1,20830568,181060
OK,22,72,1031,22,2014-08-02T01:25:00,1,20831017,181060
OK,22,72,1031,22,2014-08-02T01:30:00,0,20831466,181060
OK,22,72,1031,22,2014-08-02T01:35:00,0,20831915,181060
OK,27,59,1031,27,2014-08-02T01:40:00,2,20832364,181060
OK,27,59,1031,27,2014-08-02T01:45:00,2,20832813,181060
OK,25,64,1031,25,2014-08-02T01:50:00,0,20833262,181060
OK,25,64,1031,25,2014-08-02T01:55:00,0,20833711,181060
OK,25,64,1031,25,2014-08-02T02:00:00,0,20834160,181060
OK,28,57,1031,28,2014-08-02T02:05:00,4,20834609,181060
OK,29,55,1031,29,2014-08-02T02:10:00,3,20835058,181060
OK,35,45,1031,35,2014-08-02T02:15:00,0,20835507,181060
OK,35,45,1031,35,2014-08-02T02:20:00,0,20835956,181060
OK,35,45,1031,35,2014-08-02T02:25:00,0,20836405,181060
OK,131,12,1031,131,2014-08-02T02:30:00,1,20836854,181060
OK,131,12,1031,131,2014-08-02T02:35:00,1,20837303,181060
OK,131,12,1031,131,2014-08-02T02:40:00,0,20837752,181060
OK,131,12,1031,131,2014-08-02T02:45:00,0,20838201,181060
OK,131,12,1031,131,2014-08-02T02:50:00,0,20838650,181060
OK,131,12,1031,131,2014-08-02T02:55:00,0,20839099,181060
OK,131,12,1031,131,2014-08-02T03:00:00,0,20839548,181060
OK,131,12,1031,131,2014-08-02T03:05:00,0,20839997,181060
OK,131,12,1031,131,2014-08-02T03:10:00,0,20840446,181060
OK,131,12,1031,131,2014-08-02T03:15:00,0,20840895,181060
OK,42,38,1031,42,2014-08-02T03:20:00,2,20841344,181060
OK,29,55,1031,29,2014-08-02T03:25:00,1,20841793,181060
OK,29,55,1031,29,2014-08-02T03:30:00,0,20842242,181060
OK,29,55,1031,29,2014-08-02T03:35:00,0,20842691,181060
OK,34,47,1031,34,2014-08-02T03:40:00,1,20843140,181060
OK,30,53,1031,30,2014-08-02T03:45:00,2,20843589,181060
OK,26,61,1031,26,2014-08-02T03:50:00,1,20844038,181060
OK,23,69,1031,23,2014-08-02T03:55:00,1,20844487,181060
OK,38,42,1031,38,2014-08-02T06:00:00,3,20851941,181060
OK,52,30,1031,52,2014-08-02T06:05:00,1,20852390,181060
OK,36,44,1031,36,2014-08-02T06:10:00,1,20852839,181060
OK,37,43,1031,37,2014-08-02T06:15:00,2,20853288,181060
OK,39,41,1031,39,2014-08-02T06:20:00,3,20853737,181060
OK,41,39,1031,41,2014-08-02T06:25:00,4,20854186,181060
OK,44,36,1031,44,2014-08-02T06:30:00,4,20854635,181060
OK,36,44,1031,36,2014-08-02T06:35:00,3,20855084,181060
OK,32,50,1031,32,2014-08-02T06:40:00,5,20855533,181060
OK,34,47,1031,34,2014-08-02T06:45:00,8,20855982,181060
OK,40,40,1031,40,2014-08-02T06:50:00,6,20856431,181060
OK,40,40,1031,40,2014-08-02T06:55:00,3,20856880,181060
OK,33,48,1031,33,2014-08-02T07:00:00,1,20857329,181060
OK,34,47,1031,34,2014-08-02T07:05:00,3,20857778,181060
OK,34,47,1031,34,2014-08-02T07:10:00,5,20858227,181060
OK,31,51,1031,31,2014-08-02T07:15:00,3,20858676,181060
OK,32,50,1031,32,2014-08-02T07:20:00,3,20859125,181060
OK,32,50,1031,32,2014-08-02T07:25:00,4,20859574,181060
OK,32,50,1031,32,2014-08-02T07:30:00,5,20860023,181060
OK,41,39,1031,41,2014-08-02T07:35:00,2,20860472,181060
OK,33,48,1031,33,2014-08-02T07:40:00,1,20860921,181060
OK,35,45,1031,35,2014-08-02T07:45:00,3,20861370,181060
OK,35,45,1031,35,2014-08-02T07:50:00,5,20861819,181060
OK,38,42,1031,38,2014-08-02T07:55:00,5,20862268,181060
OK,38,42,1031,38,2014-08-02T08:00:00,5,20862717,181060
OK,38,42,1031,38,2014-08-02T08:05:00,5,20863166,181060
OK,42,38,1031,42,2014-08-02T08:10:00,7,20863615,181060
OK,42,38,1031,42,2014-08-02T08:15:00,4,20864064,181060
OK,32,50,1031,32,2014-08-02T08:20:00,4,20864513,181060
OK,34,47,1031,34,2014-08-02T08:25:00,6,20864962,181060
OK,35,45,1031,35,2014-08-02T08:30:00,4,20865411,181060
OK,34,47,1031,34,2014-08-02T08:35:00,3,20865860,181060
OK,38,42,1031,38,2014-08-02T08:40:00,4,20866309,181060
OK,29,55,1031,29,2014-08-02T08:45:00,5,20866758,181060
OK,38,42,1031,38,2014-08-02T08:50:00,9,20867207,181060
OK,40,40,1031,40,2014-08-02T08:55:00,5,20867656,181060
OK,36,44,1031,36,2014-08-02T09:00:00,3,20868105,181060
OK,38,42,1031,38,2014-08-02T09:05:00,9,20868554,181060
OK,36,44,1031,36,2014-08-02T09:10:00,10,20869003,181060
OK,26,61,1031,26,2014-08-02T09:15:00,5,20869452,181060
OK,29,55,1031,29,2014-08-02T09:20:00,8,20869901,181060
OK,30,53,1031,30,2014-08-02T09:25:00,9,20870350,181060
OK,29,55,1031,29,2014-08-02T09:30:00,6,20870799,181060
OK,32,50,1031,32,2014-08-02T09:35:00,4,20871248,181060
OK,53,30,1031,53,2014-08-02T09:40:00,2,20871697,181060
OK,41,39,1031,41,2014-08-02T09:45:00,4,20872146,181060
OK,36,44,1031,36,2014-08-02T09:50:00,10,20872595,181060
OK,38,42,1031,38,2014-08-02T09:55:00,10,20873044,181060
OK,46,34,1031,46,2014-08-02T10:00:00,8,20873493,181060
OK,44,36,1031,44,2014-08-02T10:05:00,6,20873942,181060
OK,36,44,1031,36,2014-08-02T10:10:00,5,20874391,181060
OK,32,50,1031,32,2014-08-02T10:15:00,8,20874840,181060
OK,36,44,1031,36,2014-08-02T10:20:00,8,20875289,181060
OK,36,44,1031,36,2014-08-02T10:25:00,9,20875738,181060
OK,36,44,1031,36,2014-08-02T10:30:00,7,20876187,181060
OK,36,44,1031,36,2014-08-02T10:35:00,8,20876636,181060
OK,35,45,1031,35,2014-08-02T10:40:00,14,20877085,181060
OK,37,43,1031,37,2014-08-02T10:45:00,13,20877534,181060
OK,41,39,1031,41,2014-08-02T10:50:00,9,20877983,181060
OK,44,36,1031,44,2014-08-02T10:55:00,8,20878432,181060
OK,33,48,1031,33,2014-08-02T11:00:00,9,20878881,181060
OK,41,39,1031,41,2014-08-02T11:05:00,10,20879330,181060
OK,40,40,1031,40,2014-08-02T11:10:00,6,20879779,181060
OK,27,59,1031,27,2014-08-02T11:15:00,5,20880228,181060
OK,35,45,1031,35,2014-08-02T11:20:00,7,20880677,181060
OK,30,53,1031,30,2014-08-02T11:25:00,11,20881126,181060
OK,27,59,1031,27,2014-08-02T11:30:00,9,20881575,181060
OK,27,59,1031,27,2014-08-02T11:35:00,5,20882024,181060
OK,30,53,1031,30,2014-08-02T11:40:00,12,20882473,181060
OK,32,50,1031,32,2014-08-02T11:45:00,16,20882922,181060
OK,32,50,1031,32,2014-08-02T11:50:00,10,20883371,181060
OK,30,53,1031,30,2014-08-02T11:55:00,6,20883820,181060
OK,30,53,1031,30,2014-08-02T12:00:00,4,20884269,181060
OK,27,59,1031,27,2014-08-02T12:05:00,1,20884718,181060
OK,26,61,1031,26,2014-08-02T12:10:00,1,20885167,181060
OK,29,55,1031,29,2014-08-02T12:15:00,4,20885616,181060
OK,33,48,1031,33,2014-08-02T12:20:00,6,20886065,181060
OK,36,44,1031,36,2014-08-02T12:25:00,9,20886514,181060
OK,36,44,1031,36,2014-08-02T12:30:00,10,20886963,181060
OK,32,50,1031,32,2014-08-02T12:35:00,4,20887412,181060
OK,40,40,1031,40,2014-08-02T12:40:00,4,20887861,181060
OK,41,39,1031,41,2014-08-02T12:45:00,4,20888310,181060
OK,35,45,1031,35,2014-08-02T12:50:00,6,20888759,181060
OK,35,45,1031,35,2014-08-02T12:55:00,6,20889208,181060
OK,43,37,1031,43,2014-08-02T13:00:00,3,20889657,181060
OK,32,50,1031,32,2014-08-02T13:05:00,7,20890106,181060
OK,29,55,1031,29,2014-08-02T13:10:00,10,20890555,181060
OK,28,57,1031,28,2014-08-02T13:15:00,4,20891004,181060
OK,35,45,1031,35,2014-08-02T13:20:00,6,20891453,181060
OK,35,45,1031,35,2014-08-02T13:25:00,7,20891902,181060
OK,41,39,1031,41,2014-08-02T13:30:00,6,20892351,181060
OK,40,40,1031,40,2014-08-02T13:35:00,6,20892800,181060
OK,36,44,1031,36,2014-08-02T13:40:00,3,20893249,181060
OK,45,35,1031,45,2014-08-02T13:45:00,11,20893698,181060
OK,45,35,1031,45,2014-08-02T13:50:00,17,20894147,181060
OK,44,36,1031,44,2014-08-02T13:55:00,9,20894596,181060
OK,39,41,1031,39,2014-08-02T14:00:00,3,20895045,181060
OK,41,39,1031,41,2014-08-02T14:05:00,5,20895494,181060
OK,49,32,1031,49,2014-08-02T14:10:00,11,20895943,181060
OK,41,39,1031,41,2014-08-02T14:15:00,13,20896392,181060
OK,36,44,1031,36,2014-08-02T14:20:00,10,20896841,181060
OK,37,43,1031,37,2014-08-02T14:25:00,6,20897290,181060
OK,38,42,1031,38,2014-08-02T14:30:00,9,20897739,181060
OK,38,42,1031,38,2014-08-02T14:35:00,9,20898188,181060
OK,35,45,1031,35,2014-08-02T14:40:00,3,20898637,181060
OK,37,43,1031,37,2014-08-02T14:45:00,2,20899086,181060
OK,47,34,1031,47,2014-08-02T14:50:00,5,20899535,181060
OK,47,34,1031,47,2014-08-02T14:55:00,5,20899984,181060
OK,36,44,1031,36,2014-08-02T15:00:00,2,20900433,181060
OK,35,45,1031,35,2014-08-02T15:05:00,0,20900882,181060
OK,37,43,1031,37,2014-08-02T15:10:00,3,20901331,181060
OK,37,43,1031,37,2014-08-02T15:15:00,11,20901780,181060
OK,38,42,1031,38,2014-08-02T15:20:00,10,20902229,181060
OK,43,37,1031,43,2014-08-02T15:25:00,4,20902678,181060
OK,33,48,1031,33,2014-08-02T15:30:00,10,20903127,181060
OK,35,45,1031,35,2014-08-02T15:35:00,14,20903576,181060
OK,39,41,1031,39,2014-08-02T15:40:00,13,20904025,181060
OK,33,48,1031,33,2014-08-02T15:45:00,14,20904474,181060
OK,36,44,1031,36,2014-08-02T15:50:00,18,20904923,181060
OK,38,42,1031,38,2014-08-02T15:55:00,13,20905372,181060
OK,40,40,1031,40,2014-08-02T16:00:00,4,20905821,181060
OK,40,40,1031,40,2014-08-02T16:05:00,3,20906270,181060
OK,36,44,1031,36,2014-08-02T16:10:00,2,20906719,181060
OK,30,53,1031,30,2014-08-02T16:15:00,3,20907168,181060
OK,36,44,1031,36,2014-08-02T16:20:00,5,20907617,181060
OK,38,42,1031,38,2014-08-02T16:25:00,4,20908066,181060
OK,40,40,1031,40,2014-08-02T16:30:00,1,20908515,181060
OK,40,40,1031,40,2014-08-02T16:35:00,0,20908964,181060
OK,34,47,1031,34,2014-08-02T16:40:00,2,20909413,181060
OK,30,53,1031,30,2014-08-02T16:45:00,3,20909862,181060
OK,36,44,1031,36,2014-08-02T16:50:00,6,20910311,181060
OK,38,42,1031,38,2014-08-02T16:55:00,5,20910760,181060
OK,39,41,1031,39,2014-08-02T17:00:00,2,20911209,181060
OK,29,55,1031,29,2014-08-02T17:05:00,1,20911658,181060
OK,28,57,1031,28,2014-08-02T17:10:00,3,20912107,181060
OK,27,59,1031,27,2014-08-02T17:15:00,4,20912556,181060
OK,35,45,1031,35,2014-08-02T17:20:00,3,20913005,181060
OK,35,45,1031,35,2014-08-02T17:25:00,5,20913454,181060
OK,31,51,1031,31,2014-08-02T17:30:00,2,20913903,181060
OK,52,30,1031,52,2014-08-02T17:35:00,1,20914352,181060
OK,66,24,1031,66,2014-08-02T17:40:00,3,20914801,181060
OK,43,37,1031,43,2014-08-02T17:45:00,6,20915250,181060
OK,41,39,1031,41,2014-08-02T17:50:00,6,20915699,181060
OK,45,35,1031,45,2014-08-02T17:55:00,3,20916148,181060
OK,45,35,1031,45,2014-08-02T18:00:00,1,20916597,181060
OK,32,50,1031,32,2014-08-02T18:05:00,1,20917046,181060
OK,36,44,1031,36,2014-08-02T18:10:00,3,20917495,181060
OK,37,43,1031,37,2014-08-02T18:15:00,3,20917944,181060
OK,38,42,1031,38,2014-08-02T18:20:00,4,20918393,181060
OK,40,40,1031,40,2014-08-02T18:25:00,3,20918842,181060
OK,34,47,1031,34,2014-08-02T18:30:00,2,20919291,181060
OK,38,42,1031,38,2014-08-02T18:35:00,3,20919740,181060
OK,36,44,1031,36,2014-08-02T18:40:00,2,20920189,181060
OK,35,45,1031,35,2014-08-02T18:45:00,1,20920638,181060
OK,48,33,1031,48,2014-08-02T18:50:00,1,20921087,181060
OK,48,33,1031,48,2014-08-02T18:55:00,0,20921536,181060
OK,43,37,1031,43,2014-08-02T19:00:00,3,20921985,181060
OK,43,37,1031,43,2014-08-02T19:05:00,5,20922434,181060
OK,49,32,1031,49,2014-08-02T19:10:00,3,20922883,181060
OK,42,38,1031,42,2014-08-02T19:15:00,3,20923332,181060
OK,31,51,1031,31,2014-08-02T19:20:00,5,20923781,181060
OK,28,57,1031,28,2014-08-02T19:25:00,5,20924230,181060
OK,29,55,1031,29,2014-08-02T19:30:00,6,20924679,181060
OK,32,50,1031,32,2014-08-02T19:35:00,5,20925128,181060
OK,39,41,1031,39,2014-08-02T19:40:00,1,20925577,181060
OK,39,41,1031,39,2014-08-02T19:45:00,0,20926026,181060
OK,109,14,1031,109,2014-08-02T19:50:00,3,20926475,181060
OK,72,22,1031,72,2014-08-02T19:55:00,4,20926924,181060
OK,33,48,1031,33,2014-08-02T20:00:00,1,20927373,181060
OK,33,48,1031,33,2014-08-02T20:05:00,0,20927822,181060
OK,37,43,1031,37,2014-08-02T20:10:00,2,20928271,181060
OK,32,50,1031,32,2014-08-02T20:15:00,4,20928720,181060
OK,31,51,1031,31,2014-08-02T20:20:00,4,20929169,181060
OK,32,50,1031,32,2014-08-02T20:25:00,4,20929618,181060
OK,32,50,1031,32,2014-08-02T20:30:00,3,20930067,181060
OK,32,50,1031,32,2014-08-02T20:35:00,1,20930516,181060
OK,68,23,1031,68,2014-08-02T20:40:00,1,20930965,181060
OK,49,32,1031,49,2014-08-02T20:45:00,2,20931414,181060
OK,33,48,1031,33,2014-08-02T20:50:00,4,20931863,181060
OK,37,43,1031,37,2014-08-02T20:55:00,4,20932312,181060
OK,36,44,1031,36,2014-08-02T21:00:00,2,20932761,181060
OK,35,45,1031,35,2014-08-02T21:05:00,1,20933210,181060
OK,37,43,1031,37,2014-08-02T21:10:00,1,20933659,181060
OK,37,43,1031,37,2014-08-02T21:15:00,1,20934108,181060
OK,37,43,1031,37,2014-08-02T21:20:00,0,20934557,181060
OK,42,38,1031,42,2014-08-02T21:25:00,1,20935006,181060
OK,42,38,1031,42,2014-08-02T21:30:00,3,20935455,181060
OK,36,44,1031,36,2014-08-02T21:35:00,4,20935904,181060
OK,38,42,1031,38,2014-08-02T21:40:00,4,20936353,181060
OK,41,39,1031,41,2014-08-02T21:45:00,2,20936802,181060
OK,47,34,1031,47,2014-08-02T21:50:00,2,20937251,181060
OK,47,34,1031,47,2014-08-02T21:55:00,4,20937700,181060
OK,54,29,1031,54,2014-08-02T22:00:00,0,20938149,181060
OK,29,55,1031,29,2014-08-02T22:05:00,2,20938598,181060
OK,31,51,1031,31,2014-08-02T22:10:00,3,20939047,181060
OK,51,31,1031,51,2014-08-02T22:15:00,2,20939496,181060
OK,36,44,1031,36,2014-08-02T22:20:00,5,20939945,181060
OK,38,42,1031,38,2014-08-02T22:25:00,3,20940394,181060
OK,37,43,1031,37,2014-08-02T22:30:00,1,20940843,181060
OK,37,43,1031,37,2014-08-02T22:35:00,3,20941292,181060
OK,34,47,1031,34,2014-08-02T22:40:00,4,20941741,181060
OK,35,45,1031,35,2014-08-02T22:45:00,3,20942190,181060
OK,21,76,1031,21,2014-08-02T22:50:00,1,20942639,181060
OK,21,76,1031,21,2014-08-02T22:55:00,0,20943088,181060
OK,24,66,1031,24,2014-08-02T23:00:00,1,20943537,181060
OK,30,53,1031,30,2014-08-02T23:10:00,2,20943986,181060
OK,33,48,1031,33,2014-08-02T23:15:00,1,20944435,181060
OK,37,43,1031,37,2014-08-02T23:20:00,2,20944884,181060
OK,37,43,1031,37,2014-08-02T23:25:00,2,20945333,181060
OK,35,45,1031,35,2014-08-02T23:30:00,2,20945782,181060
OK,35,45,1031,35,2014-08-02T23:35:00,2,20946231,181060
OK,35,45,1031,35,2014-08-02T23:40:00,0,20946680,181060
OK,35,45,1031,35,2014-08-02T23:45:00,0,20947129,181060
OK,35,45,1031,35,2014-08-02T23:50:00,0,20947578,181060
OK,35,45,1031,35,2014-08-02T23:55:00,0,20948027,181060
OK,35,45,1031,35,2014-08-03T00:00:00,0,20948476,181060
OK,35,45,1031,35,2014-08-03T00:05:00,0,20948925,181060
OK,28,57,1031,28,2014-08-03T00:10:00,1,20949373,181060
OK,28,57,1031,28,2014-08-03T00:15:00,1,20949822,181060
OK,28,57,1031,28,2014-08-03T00:20:00,0,20950271,181060
OK,28,57,1031,28,2014-08-03T00:25:00,1,20950720,181060
OK,28,57,1031,28,2014-08-03T00:30:00,1,20951169,181060
OK,28,57,1031,28,2014-08-03T00:35:00,0,20951618,181060
OK,51,31,1031,51,2014-08-03T00:40:00,1,20952067,181060
OK,51,31,1031,51,2014-08-03T00:45:00,0,20952516,181060
OK,37,43,1031,37,2014-08-03T00:50:00,1,20952965,181060
OK,34,47,1031,34,2014-08-03T00:55:00,2,20953414,181060
OK,31,51,1031,31,2014-08-03T01:00:00,1,20953863,181060
OK,31,51,1031,31,2014-08-03T01:05:00,0,20954312,181060
OK,29,55,1031,29,2014-08-03T01:10:00,1,20954761,181060
OK,29,55,1031,29,2014-08-03T01:15:00,1,20955210,181060
OK,29,55,1031,29,2014-08-03T01:20:00,0,20955659,181060
OK,29,55,1031,29,2014-08-03T01:25:00,0,20956108,181060
OK,27,59,1031,27,2014-08-03T01:30:00,1,20956557,181060
OK,25,64,1031,25,2014-08-03T01:35:00,3,20957006,181060
OK,31,51,1031,31,2014-08-03T01:40:00,2,20957455,181060
OK,20,80,1031,20,2014-08-03T01:45:00,1,20957904,181060
OK,20,80,1031,20,2014-08-03T01:50:00,0,20958353,181060
OK,20,80,1031,20,2014-08-03T01:55:00,0,20958802,181060
OK,20,80,1031,20,2014-08-03T02:00:00,0,20959251,181060
OK,20,80,1031,20,2014-08-03T02:05:00,0,20959700,181060
OK,79,20,1031,79,2014-08-03T02:10:00,1,20960149,181060
OK,57,28,1031,57,2014-08-03T02:15:00,2,20960598,181060
OK,35,45,1031,35,2014-08-03T02:20:00,1,20961047,181060
OK,35,45,1031,35,2014-08-03T02:25:00,0,20961496,181060
OK,21,76,1031,21,2014-08-03T02:30:00,1,20961945,181060
OK,21,76,1031,21,2014-08-03T02:35:00,1,20962394,181060
OK,24,66,1031,24,2014-08-03T02:40:00,3,20962843,181060
OK,24,66,1031,24,2014-08-03T02:45:00,3,20963292,181060